Weather History for Westfield, MA

Change the Weather History Date:

Tuesday, March 12, 2013

  Actual Average Record
Temperature  
Mean Temperature 48 °F -  
Max Temperature 54 °F 40 °F 73 °F (2012)
Min Temperature 42 °F 22 °F 23 °F (1997)
Degree Days  
Heating Degree Days 16    
Moisture  
Dew Point 46 °F    
Average Humidity 91    
Maximum Humidity 100    
Minimum Humidity 67    
Precipitation  
Precipitation 1.13 in - - ()
Sea Level Pressure  
Sea Level Pressure 29.88 in    
Wind  
Wind Speed 7 mph (South)    
Max Wind Speed 17 mph    
Max Gust Speed 23 mph    
Visibility 6 miles    
Events Rain    
Averages and records for this station are not official NWS values.
T = Trace of Precipitation, MM = Missing Value Source: NWS Daily Summary

Daily Weather History Graph

Daily Weather History Graph

Search for Another Location

Airport:

Trip Planner

Search our weather history database for the weather conditions in past years. The results will help you decide how hot, cold, wet, or windy it might be!

Date:

Astronomy

Mar. 12, 2013 Rise Set
Actual Time 7:07 AM EDT 6:54 PM EDT
Civil Twilight 6:39 AM EDT 7:22 PM EDT
Nautical Twilight 6:07 AM EDT 7:54 PM EDT
Astronomical Twilight 5:34 AM EDT 8:27 PM EDT
Moon 7:10 AM EDT (3/12) 8:08 PM EDT (3/12)
Length of Visible Light 12h 42m
Length of Day
11h 46m
New Moon, 1% of the Moon is Illuminated
Mar 12
New Moon
Mar 19
First Quarter
Mar 27
Full
Apr 3
Last Quarter
Apr 10
New

Hourly Weather History & Observations

Time (EDT) Temp. Windchill Dew Point Humidity Pressure Visibility Wind Dir Wind Speed Gust Speed Precip Events Conditions
12:44 AM 44.6 °F 41.4 °F 41.0 °F 87% 30.09 in 10.0 mi South 5.8 mph - N/A   Overcast
12:53 AM 45.0 °F 41.2 °F 42.1 °F 90% 30.10 in 10.0 mi South 6.9 mph - N/A   Overcast
1:53 AM 45.0 °F 40.6 °F 43.0 °F 93% 30.08 in 9.0 mi South 8.1 mph - N/A   Overcast
2:53 AM 46.0 °F 43.1 °F 44.1 °F 93% 30.06 in 10.0 mi South 5.8 mph - N/A   Overcast
3:53 AM 46.0 °F 44.8 °F 43.0 °F 89% 30.03 in 10.0 mi SSE 3.5 mph - N/A   Overcast
4:02 AM 46.4 °F 44.3 °F 44.6 °F 93% 30.02 in 10.0 mi SSE 4.6 mph - N/A   Overcast
4:53 AM 46.0 °F 43.9 °F 44.1 °F 93% 30.03 in 10.0 mi South 4.6 mph - N/A   Overcast
5:53 AM 46.9 °F - 44.1 °F 90% 30.01 in 10.0 mi Calm Calm - N/A   Overcast
6:45 AM 44.6 °F 43.1 °F 42.8 °F 93% 29.98 in 9.0 mi South 3.5 mph - 0.01 in Rain Light Rain
6:53 AM 45.0 °F 43.5 °F 44.1 °F 97% 29.99 in 10.0 mi South 3.5 mph - 0.01 in Rain Light Rain
7:53 AM 45.0 °F - 44.1 °F 97% 29.99 in 2.5 mi Calm Calm - 0.01 in Rain Light Rain
8:03 AM 44.6 °F - 44.6 °F 100% 29.98 in 4.0 mi Calm Calm - 0.01 in Rain Light Rain
8:53 AM 46.0 °F - 45.0 °F 96% 29.99 in 4.0 mi Calm Calm - 0.02 in Rain Light Rain
9:53 AM 48.9 °F - 46.9 °F 93% 29.98 in 6.0 mi South 4.6 mph - 0.03 in Rain Light Rain
10:53 AM 50.0 °F - 48.0 °F 93% 29.96 in 6.0 mi South 4.6 mph - 0.03 in Rain Light Rain
11:22 AM 51.8 °F - 48.2 °F 88% 29.93 in 5.0 mi South 6.9 mph - 0.02 in Rain Light Rain
11:53 AM 52.0 °F - 48.9 °F 89% 29.93 in 7.0 mi South 9.2 mph - 0.04 in Rain Light Rain
12:53 PM 52.0 °F - 50.0 °F 93% 29.90 in 6.0 mi SSE 12.7 mph - 0.05 in Rain Light Rain
1:53 PM 52.0 °F - 50.0 °F 93% 29.87 in 5.0 mi South 11.5 mph - 0.07 in Rain Light Rain
2:53 PM 52.0 °F - 50.0 °F 93% 29.82 in 5.0 mi SSE 10.4 mph 16.1 mph 0.10 in Rain Light Rain
3:51 PM 53.6 °F - 51.8 °F 94% 29.77 in 4.0 mi SSE 11.5 mph 18.4 mph 0.10 in Rain Rain
3:53 PM 53.1 °F - 51.1 °F 93% 29.78 in 4.0 mi SSE 12.7 mph 19.6 mph 0.10 in Rain Rain
4:28 PM 53.6 °F - 51.8 °F 94% 29.74 in 4.0 mi SSE 11.5 mph 19.6 mph 0.08 in Rain Light Rain
4:41 PM 53.6 °F - 51.8 °F 94% 29.73 in 4.0 mi SSE 13.8 mph 19.6 mph 0.11 in Rain Rain
4:53 PM 54.0 °F - 52.0 °F 93% 29.73 in 2.0 mi SSE 12.7 mph 20.7 mph 0.15 in Rain Rain
5:12 PM 53.6 °F - 51.8 °F 94% 29.71 in 2.0 mi SSE 10.4 mph 21.9 mph 0.05 in Rain Rain
5:21 PM 53.6 °F - 51.8 °F 94% 29.71 in 2.0 mi SSE 10.4 mph - 0.08 in Rain Rain
5:35 PM 53.6 °F - 51.8 °F 94% 29.70 in 2.0 mi South 8.1 mph - 0.15 in Rain Heavy Rain
5:53 PM 54.0 °F - 52.0 °F 93% 29.70 in 2.0 mi South 9.2 mph - 0.28 in Rain Heavy Rain
6:53 PM 54.0 °F - 52.0 °F 93% 29.70 in 2.0 mi South 9.2 mph - 0.18 in Rain Light Rain
7:53 PM 54.0 °F - 52.0 °F 93% 29.70 in 2.0 mi South 11.5 mph - 0.01 in   Overcast
8:48 PM 46.4 °F 39.5 °F 42.8 °F 87% 29.74 in 10.0 mi WNW 17.3 mph - 0.05 in Rain Light Rain
8:53 PM 46.0 °F 40.2 °F 42.1 °F 86% 29.76 in 10.0 mi WNW 12.7 mph 21.9 mph 0.05 in   Overcast
9:53 PM 43.0 °F 36.8 °F 37.0 °F 80% 29.78 in 10.0 mi NW 11.5 mph 19.6 mph N/A   Overcast
10:53 PM 44.1 °F 39.5 °F 34.0 °F 68% 29.80 in 10.0 mi NNW 8.1 mph - N/A   Overcast
11:53 PM 42.1 °F 35.2 °F 32.0 °F 67% 29.80 in 10.0 mi NNW 12.7 mph 23.0 mph N/A   Clear